Flag for France Weather past 2 weeks in Lille, France

Now
37 °F

Passing clouds.


Feels Like: 30 °F
Forecast: 36 / 46 °F
Wind: 10 mph from Southwest

Location: Lille Airport

Current Time: Mar 3, 2015 at 1:45:03 AM

Latest Report: Mar 3, 2015 at 1:00 AM


Visibility: N/A

Pressure: 30.07 "Hg

Humidity: 87%

Dew point: 34 °F

Location of LilleLocation

Historic Weather in Lille — Graph

°F

Lille temperature yesterday

Maximum temperature yesterday: 46 °F (at 12:00 AM)
Minimum temperature yesterday: 39 °F (at 6:00 AM)
Average temperature yesterday: 43 °F

Past Weeks' High & Low Weather Summary

 TemperatureHumidityPressure
High52 °F (Mar 1, 2:00 PM)100% (Feb 16, 1:00 AM)30.77 "Hg (Feb 16, 1:00 AM)
Low27 °F (Feb 18, 5:00 AM)53% (Feb 27, 4:00 PM)29.36 "Hg (Feb 23, 4:00 AM)
Average40 °F88%29.94 "Hg
* Reported Midnight between Feb 15 and Feb 16 — Mar 3 12:30 AM, Lille, Weather by CustomWeather, © 2015

Note: Actual official high and low records may vary slightly from our data, if they occured in-between our weather recording intervals... More about our weather records

Advertising

Lille weather history for previous 24 hours

 ConditionsComfort  
Time TempWeatherWind HumidityBarometerVisibility
12:30 AM
Tue, Mar 3
37 °FPassing clouds.12 mph93%30.07 "HgN/A
12:00 AM37 °FPassing clouds.12 mph87%30.07 "HgN/A
11:30 PM
Mon, Mar 2
39 °FClear.12 mph87%30.04 "Hg10 mi
11:00 PM39 °FClear.12 mph81%30.04 "Hg10 mi
10:30 PM39 °FClear.9 mph81%30.04 "Hg10 mi
10:00 PM39 °FClear.9 mph75%30.01 "Hg10 mi
9:30 PM41 °FClear.10 mph70%30.01 "Hg10 mi
9:00 PM41 °FClear.18 mph70%30.01 "Hg10 mi
8:30 PM41 °FClear.14 mph70%29.98 "Hg10 mi
8:00 PM41 °FClear.16 mph70%29.98 "Hg10 mi
7:30 PM41 °FClear.16 mph70%29.98 "Hg10 mi
7:00 PM43 °FPassing clouds.20 mph61%29.95 "HgN/A
6:30 PM43 °FClear.21 mph61%29.95 "Hg10 mi
6:00 PM45 °FSunny.20 mph61%29.92 "Hg10 mi
5:30 PM45 °FSunny.23 mph53%29.92 "Hg10 mi
5:00 PM46 °FScattered clouds.26 mph53%29.89 "HgN/A
4:30 PM46 °FScattered clouds.28 mph53%29.89 "HgN/A
4:00 PM46 °FScattered clouds.26 mph57%29.86 "HgN/A
3:30 PM46 °FScattered clouds.28 mph57%29.83 "HgN/A
3:00 PM46 °FScattered clouds.26 mph62%29.83 "HgN/A
2:30 PM46 °FScattered clouds.29 mph62%29.80 "HgN/A
2:00 PM46 °FPassing clouds.29 mph62%29.77 "HgN/A
1:30 PM43 °FBroken clouds.21 mph87%29.77 "HgN/A
1:00 PM43 °FBroken clouds.24 mph81%29.77 "HgN/A
12:30 PM43 °FBroken clouds.20 mph81%29.74 "HgN/A
12:00 PM41 °FBroken clouds.15 mph87%29.74 "HgN/A
11:30 AM41 °FSprinkles. Partly sunny.24 mph87%29.74 "HgN/A
11:00 AM45 °FScattered clouds.17 mph76%29.74 "HgN/A
10:30 AM46 °FScattered clouds.14 mph66%29.74 "HgN/A
10:00 AM45 °FSunny.15 mph71%29.71 "Hg10 mi
9:30 AM43 °FSunny.13 mph81%29.71 "Hg10 mi
9:00 AM41 °FSunny.8 mph81%29.71 "Hg10 mi
8:30 AM39 °FSunny.9 mph87%29.71 "Hg10 mi
8:15 AM39 °FSunny.12 mph87%29.71 "Hg10 mi
7:30 AM39 °FSunny.14 mph81%29.68 "Hg10 mi
7:00 AM39 °FClear.16 mph81%29.68 "Hg10 mi
6:30 AM39 °FPassing clouds.8 mph87%29.65 "HgN/A
6:00 AM39 °FPassing clouds.9 mph87%29.65 "HgN/A
5:30 AM41 °FPassing clouds.12 mph81%29.65 "HgN/A
5:00 AM41 °FPartly cloudy.15 mph81%29.62 "HgN/A
4:30 AM41 °FClear.15 mph87%29.62 "HgN/A
4:00 AM43 °FClear.16 mph81%29.62 "Hg10 mi
3:30 AM43 °FClear.15 mph81%29.62 "HgN/A
3:00 AM43 °FPartly cloudy.22 mph81%29.62 "HgN/A
2:30 AM43 °FClear.13 mph87%29.59 "HgN/A
2:00 AM45 °FClear.16 mph76%29.59 "HgN/A
1:30 AM45 °FClear.16 mph81%29.59 "HgN/A
1:00 AM45 °FClear.15 mph81%29.56 "Hg10 mi
Weather by CustomWeather, © 2015

See weather overviewHow to use our weather pages